Change the Weather History Date:

Saturday, December 17, 2011

  Actual Average Record
Temperature  
Mean Temperature 81 °F -  
Max Temperature 86 °F 84 °F 89 °F (2006)
Min Temperature 76 °F 77 °F 73 °F (2007)
Cooling Degree Days 16    
Growing Degree Days 31 (Base 50)    
Moisture  
Dew Point 73 °F    
Average Humidity 76    
Maximum Humidity 94    
Minimum Humidity 51    
Precipitation  
Precipitation 0.00 in - - ()
Sea Level Pressure  
Sea Level Pressure 29.91 in    
Wind  
Wind Speed 8 mph ()    
Max Wind Speed 20 mph    
Max Gust Speed -    
Visibility 8.5 miles    
Events      
Averages and records for this station are not official NWS values.
T = Trace of Precipitation, MM = Missing Value Source: Averaged Metar Reports

Daily Weather History Graph

Daily Weather History Graph

Search for Another Location

Airport or City:

Trip Planner

Search our weather history database for the weather conditions in past years. The results will help you decide how hot, cold, wet, or windy it might be!

Date:

Astronomy

Dec. 17, 2011 Rise Set
Actual Time 6:46 AM AST 6:11 PM AST
Civil Twilight 6:23 AM AST 6:34 PM AST
Nautical Twilight 5:57 AM AST 7:01 PM AST
Astronomical Twilight 5:30 AM AST 7:27 PM AST
Moon No Moon Rise 12:05 PM AST (12/17)
Length of Visible Light 12h 11m
Length of Day
11h 25m
Waning Gibbous, 54% of the Moon is Illuminated
Dec 17
Waning Gibbous
Dec 17
Last Quarter
Dec 24
New
Jan 1
First Quarter
Jan 9
Full

Hourly Weather History & Observations

Time (AST) Temp. Heat Index Dew Point Humidity Pressure Visibility Wind Dir Wind Speed Gust Speed Precip Events Conditions
12:00 AM 78.8 °F - 73.4 °F 83% 29.92 in - North - - N/A   Unknown
1:00 AM 78.8 °F - 73.4 °F 83% 29.92 in - North - - N/A   Unknown
2:00 AM 76 °F - 74 °F 94%  in - Calm Calm - -   Clear
2:00 AM 77.0 °F - 75.2 °F 94% 29.89 in - North - - N/A   Mostly Cloudy
3:00 AM 77.0 °F - 73.4 °F 89% 29.89 in - North - - N/A   Unknown
4:00 AM 78.8 °F - 71.6 °F 78% 29.89 in - North - - N/A   Unknown
5:00 AM 78 °F - 72 °F 76%  in - Calm Calm - -   Clear
5:00 AM 78.8 °F - 71.6 °F 78% 29.89 in - North - - N/A   Unknown
6:00 AM 77.0 °F - 73.4 °F 89% 29.89 in - North - - N/A   Unknown
7:00 AM 78.8 °F - 71.6 °F 78% 29.92 in - North - - N/A   Unknown
8:00 AM 78.8 °F - 73.4 °F 83% 29.95 in 6.2 mi ENE 12.7 mph - N/A   Scattered Clouds
10:00 AM 80.6 °F 86.2 °F 75.2 °F 84% 29.98 in 6.2 mi East 19.6 mph - N/A   Scattered Clouds
11:00 AM 77.0 °F - 75.2 °F 94% 29.95 in 6.2 mi Variable 2.3 mph - N/A   Scattered Clouds
12:00 PM 84.2 °F 90.9 °F 73.4 °F 70% 29.95 in 6.2 mi ENE 15.0 mph - N/A   Scattered Clouds
1:00 PM 84.2 °F 90.9 °F 73.4 °F 70% 29.92 in 6.2 mi ENE 15.0 mph - N/A   Mostly Cloudy
2:00 PM 84.2 °F 90.9 °F 73.4 °F 70% 29.89 in - North - - N/A   Unknown
3:00 PM 84.2 °F 89.6 °F 71.6 °F 66% 29.89 in 6.2 mi East 18.4 mph - N/A   Scattered Clouds
4:00 PM 84.2 °F 89.6 °F 71.6 °F 66% 29.86 in 6.2 mi East 11.5 mph - N/A   Scattered Clouds
5:00 PM 84 °F - 69 °F 51% 29.88 in 19 mi ENE 15.0 mph - -   Mostly Cloudy
5:00 PM 84.2 °F 90.9 °F 73.4 °F 70% 29.86 in 6.2 mi ENE 15.0 mph - N/A   Mostly Cloudy
6:00 PM 82.4 °F 87.2 °F 71.6 °F 70% 29.86 in - North - - N/A   Unknown
7:00 PM 80.6 °F 84.6 °F 71.6 °F 74% 29.89 in - North - - N/A   Unknown
8:00 PM 82 °F - 69 °F 55% 29.91 in 16 mi ENE 12.7 mph - -   Partly Cloudy
9:00 PM 80.6 °F 84.6 °F 71.6 °F 74% 29.92 in - North - - N/A   Unknown
10:00 PM 80.6 °F 84.6 °F 71.6 °F 74% 29.92 in - North - - N/A   Unknown
11:00 PM 80.6 °F 84.6 °F 71.6 °F 74% 29.92 in - North - - N/A   Unknown